[[{"header":{"parameterUnit":"m.s-1","parameterCategory":1,"la1":30.2991,"la2":30.254,"lo1":-89.0895,"lo2":-89.0444,"dy":0.0017,"dx":0.0017,"nx":28,"ny":28,"refTime":"2023-07-25T09:00:00:Z","depth":0,"parameterNumber":2,"parameterNumberName":"U-component_of_WINDS"},"data":[0,0,0,0,0,0,0,0,0,0,0,0,0,0,0,0,0,0,0,0,0,0,0,0,0,0,0,0,0,0,0,0,0,0,0,0,0,0,0,0,0,0,0,0,0,0,0,0,0,0,0,0,0,0,0,0,0,0,1.9367,1.9367,0,1.9368,1.9368,1.9368,1.9307,1.9305,1.9303,1.9302,1.9303,1.9305,1.9306,0,0,0,0,0,0,0,0,0,0,0,0,0,1.9311,1.9312,1.9367,1.9367,1.9367,1.9368,1.9368,1.9368,1.9307,1.9305,1.9303,1.9301,1.9303,1.9305,1.9306,0,0,0,0,0,0,0,0,0,0,0,0,0,1.9326,1.9313,1.9367,1.9337,1.9334,1.9368,1.9368,1.9368,1.9307,1.9305,1.9302,1.93,1.9302,1.9304,1.9307,1.937,0,0,1.9314,1.9315,0,0,0,0,0,0,0,0,1.9325,1.9328,1.9341,1.9339,1.9336,1.9335,1.9348,1.9368,1.9308,1.9317,1.9302,1.9299,1.9316,1.9317,1.9322,1.937,1.937,1.9314,1.9315,1.9316,1.9317,0,0,0,0,0,0,0,1.9324,1.9328,1.9367,1.9341,1.9338,1.9322,1.9322,1.9352,1.933,1.9316,1.9312,1.9313,1.9314,1.932,1.9322,1.937,1.9314,1.9316,1.9317,1.9318,1.9465,1.9467,0,0,0,0,0,0,1.9327,1.9327,1.9367,1.9367,1.9324,1.9325,1.9325,1.9337,1.933,1.9326,1.9315,1.931,1.9317,1.9319,1.9322,1.9392,1.9316,1.9319,1.932,1.9462,1.9465,1.9468,0,0,0,0,0,0,1.9327,1.9332,1.9367,1.9346,1.9349,1.9329,1.9344,1.9339,1.9345,1.9329,1.9324,1.9326,1.9316,1.9318,1.9357,1.9391,1.932,1.9322,1.9459,1.9463,1.9466,1.9534,0,0,0,0,0,0,1.9325,1.9332,1.9356,1.9347,1.9351,1.9404,1.9346,1.9341,1.9349,1.9343,1.9337,1.9334,1.9314,1.9354,1.9359,1.9393,1.9324,1.9456,1.9461,1.9465,1.9529,1.954,1.9549,0,0,0,0,0,1.9323,1.9376,1.9358,1.9363,1.9381,1.9406,1.9408,1.9383,1.9352,1.9376,1.9365,1.9334,1.9387,1.9359,1.9364,1.9399,1.9454,1.9459,1.9465,1.9524,1.9538,1.9549,0,0,0,0,0,0,1.9391,1.9375,1.9354,1.9406,1.9407,1.9395,1.9425,1.9399,1.941,1.9403,1.9372,1.9372,1.9414,1.9411,1.938,1.9457,1.9415,1.9422,1.9458,1.947,1.948,1.948,1.9325,0,0,0,0,0,1.9412,1.9434,1.9418,1.9465,1.9467,1.9446,1.9456,1.9436,1.9437,1.9438,1.9429,1.9431,1.9447,1.9459,1.9474,1.9528,1.9525,1.9555,1.9565,1.9573,1.9579,1.9604,1.9616,1.9486,1.9486,1.9486,0,0,1.9455,1.9449,1.9465,1.9478,1.9477,1.9499,1.9447,1.9474,1.9489,1.9442,1.9477,1.9471,1.947,1.9516,1.9536,1.9515,1.9614,1.958,1.9587,1.9588,1.9611,1.9623,1.9634,1.949,1.9489,1.9489,0,0,1.9545,1.9544,1.9581,1.958,1.9579,1.9564,1.9573,1.9564,1.9558,1.9592,1.9556,1.9574,1.9604,1.9604,1.9608,1.9694,1.9666,1.97,1.9753,1.9777,1.9787,1.9796,1.9824,1.9835,1.9706,1.9706,1.9707,0,1.9599,1.9631,1.9603,1.9631,1.9636,1.9594,1.9629,1.9631,1.9635,1.9639,1.9615,1.9648,1.9646,1.9689,1.971,1.9716,1.9723,1.97,1.9788,1.9797,1.9805,1.9831,1.9841,1.971,1.971,1.971,1.9709,0,1.9696,1.9718,1.9748,1.9751,1.976,1.9792,1.9768,1.9781,1.976,1.9747,1.9781,1.9776,1.9787,1.9796,1.9777,1.9836,1.9822,1.9794,1.975,1.9821,1.9845,1.9855,1.9716,1.9715,1.9713,1.9712,0,0,1.9829,1.9814,1.9825,1.9824,1.9818,1.9834,1.9863,1.9873,1.9883,1.9887,1.9908,1.9933,1.9905,1.991,1.989,1.9912,1.9976,1.988,1.988,1.9896,2.0037,2.0057,2.0069,1.9958,1.996,1.9961,2.0036,0,1.9913,1.9961,1.9935,1.9986,2.0005,1.9963,1.9988,1.9986,1.9974,1.9988,1.9975,1.9991,1.9956,1.9957,1.9978,1.9965,2.0004,1.9959,1.9976,1.9977,1.9975,2.0082,2.0104,2.0175,2.0046,2.0047,2.0049,0,2.0019,2.0024,2.0076,2.0063,2.007,2.0093,2.0097,2.0111,2.0108,2.0097,2.0101,2.0075,2.01,2.0058,2.0092,2.0062,2.0067,2.0062,2.0064,2.0063,2.0016,2.0081,2.0197,2.0207,2.0063,2.0062,2.0061,0,2.0106,2.0127,2.016,2.0161,2.0148,2.0164,2.0159,2.0153,2.0159,2.0163,2.0166,2.0174,2.0178,2.0184,2.016,2.0132,2.0196,2.0153,2.0186,2.0187,2.02,2.0199,2.0316,2.0208,2.0208,2.0208,2.0208,0,2.0201,2.0234,2.0198,2.0219,2.0253,2.0223,2.0258,2.0249,2.0243,2.0259,2.0225,2.0241,2.0209,2.0222,2.0204,2.0232,2.0235,2.0226,2.022,2.0228,2.0229,2.0229,2.0223,2.0211,2.021,2.0209,2.0209,0,2.0305,2.0283,2.0315,2.0299,2.0295,2.0321,2.0306,2.0323,2.0309,2.033,2.0333,2.031,2.0322,2.0299,2.031,2.0297,2.0336,2.0324,2.0337,2.0332,2.0366,2.0362,2.0485,2.0499,2.0385,2.0386,2.0387,0,2.0366,2.039,2.0375,2.0383,2.0379,2.0393,2.0398,2.0369,2.0376,2.0372,2.0389,2.0398,2.0404,2.0426,2.041,2.0416,2.0402,2.0445,2.0403,2.0409,2.0399,2.0397,2.0398,2.0453,2.0455,2.0456,2.0457,0,2.0476,2.0463,2.0471,2.0476,2.0482,2.0485,2.0484,2.0493,2.0461,2.0471,2.0482,2.0487,2.0496,2.0504,2.0507,2.0501,2.0473,2.047,2.0478,2.0484,2.0489,2.0484,2.0357,2.0467,2.0466,2.0465,2.0465,2.0464,2.0558,2.0575,2.0566,2.0576,2.0573,2.0572,2.0586,2.0572,2.0581,2.0585,2.0568,2.0583,2.0575,2.0575,2.0572,2.0583,2.0563,2.0575,2.0578,2.0581,2.0584,2.049,2.0583,2.0583,2.0583,2.0583,2.0582,0,2.0663,2.0654,2.0664,2.0663,2.067,2.0643,2.064,2.0648,2.0661,2.0657,2.0662,2.0674,2.0682,2.0665,2.067,2.0681,2.0668,2.0683,2.0681,2.0679,2.0603,2.0594,2.0693,2.0693,2.0693,2.0693,2.0693,2.0693,2.0718,2.0745,2.0731,2.0755,2.0746,2.0759,2.076,2.0758,2.0754,2.0768,2.0774,2.0763,2.0753,2.0756,2.0761,2.0756,2.0758,2.0777,2.0767,2.0696,2.0685,2.0675,2.0666,2.0779,2.0779,2.0842,2.0843,2.0843]},{"header":{"parameterUnit":"m.s-1","parameterCategory":1,"la1":30.2991,"la2":30.254,"lo1":-89.0895,"lo2":-89.0444,"dy":0.0017,"dx":0.0017,"nx":28,"ny":28,"refTime":"2023-07-25T09:00:00:Z","depth":0,"parameterNumber":3,"parameterNumberName":"V-component_of_WINDS"},"data":[0,0,0,0,0,0,0,0,0,0,0,0,0,0,0,0,0,0,0,0,0,0,0,0,0,0,0,0,0,0,0,0,0,0,0,0,0,0,0,0,0,0,0,0,0,0,0,0,0,0,0,0,0,0,0,0,0,0,2.7118,2.7117,0,2.7065,2.7065,2.7064,2.6989,2.6988,2.6987,2.6986,2.6932,2.6931,2.6931,0,0,0,0,0,0,0,0,0,0,0,0,0,2.7152,2.7151,2.7118,2.7117,2.7117,2.7065,2.7065,2.7064,2.699,2.6988,2.6986,2.6985,2.6932,2.6932,2.6931,0,0,0,0,0,0,0,0,0,0,0,0,0,2.7122,2.7151,2.7118,2.7073,2.7069,2.7066,2.7065,2.7064,2.699,2.6988,2.6986,2.6984,2.6932,2.6932,2.6931,2.6968,0,0,2.693,2.693,0,0,0,0,0,0,0,0,2.7124,2.7121,2.708,2.7076,2.7071,2.7032,2.7057,2.7032,2.699,2.702,2.6986,2.6983,2.6967,2.6963,2.6958,2.6965,2.6963,2.693,2.693,2.693,2.693,0,0,0,0,0,0,0,2.7126,2.7123,2.7097,2.708,2.7074,2.7055,2.7049,2.7052,2.7005,2.7017,2.7012,2.7006,2.6964,2.6958,2.6956,2.6962,2.693,2.693,2.693,2.6929,2.6993,2.6995,0,0,0,0,0,0,2.7135,2.7125,2.7099,2.7095,2.7093,2.7056,2.7049,2.7046,2.7004,2.6996,2.7008,2.7003,2.696,2.6956,2.6954,2.6991,2.693,2.6929,2.6929,2.6991,2.6993,2.6995,0,0,0,0,0,0,2.7136,2.7133,2.7101,2.7109,2.7103,2.7058,2.7055,2.7046,2.7041,2.6998,2.6989,2.7011,2.6958,2.6954,2.6964,2.6988,2.6929,2.6929,2.6989,2.6992,2.6994,2.7067,0,0,0,0,0,0,2.7137,2.7134,2.7148,2.7109,2.7103,2.7113,2.7057,2.7047,2.704,2.7033,2.6998,2.699,2.6956,2.6965,2.6964,2.6986,2.6929,2.6986,2.699,2.6993,2.7063,2.7072,2.7081,0,0,0,0,0,2.7139,2.7171,2.7149,2.7146,2.7119,2.7114,2.711,2.7071,2.7043,2.7056,2.7027,2.6992,2.6986,2.6966,2.6964,2.6988,2.6985,2.6989,2.6993,2.7059,2.707,2.7081,0,0,0,0,0,0,2.7214,2.7165,2.714,2.7162,2.7143,2.7102,2.7117,2.7085,2.7074,2.7067,2.7018,2.7011,2.7026,2.7008,2.6987,2.7019,2.698,2.6984,2.703,2.7041,2.705,2.7053,2.6928,0,0,0,0,0,2.7233,2.7234,2.7191,2.7214,2.7205,2.7163,2.716,2.713,2.7109,2.71,2.7073,2.7053,2.7046,2.7043,2.7035,2.706,2.705,2.7075,2.7084,2.7092,2.7095,2.7104,2.7114,2.7009,2.7009,2.7009,0,0,2.7273,2.7246,2.7249,2.7228,2.721,2.721,2.7157,2.716,2.7159,2.7101,2.7107,2.7087,2.7061,2.7078,2.7084,2.7063,2.7122,2.7097,2.7103,2.7103,2.7109,2.7119,2.7128,2.7012,2.7012,2.7011,0,0,2.7344,2.7325,2.7341,2.7323,2.7296,2.7267,2.7271,2.7235,2.7219,2.7225,2.718,2.7178,2.7169,2.7151,2.7141,2.7204,2.7169,2.7203,2.725,2.7259,2.7267,2.7274,2.7294,2.7302,2.7207,2.7207,2.7207,0,2.7396,2.7396,2.7353,2.7358,2.7349,2.7295,2.731,2.7295,2.7267,2.7261,2.7239,2.7223,2.7203,2.7213,2.7228,2.7223,2.7224,2.7206,2.727,2.7276,2.7282,2.73,2.7308,2.7211,2.7211,2.721,2.721,0,2.746,2.746,2.7476,2.7449,2.7442,2.7452,2.741,2.7408,2.7379,2.7352,2.7358,2.7331,2.7314,2.7315,2.7288,2.7321,2.7309,2.7279,2.7238,2.7297,2.7313,2.732,2.7217,2.7215,2.7214,2.7213,0,0,2.7577,2.7526,2.7532,2.7518,2.7484,2.7482,2.7489,2.7473,2.7471,2.7454,2.7456,2.7449,2.742,2.7408,2.7378,2.7387,2.7435,2.7355,2.7354,2.7369,2.7467,2.7488,2.7497,2.7412,2.7414,2.7415,2.7468,0,2.764,2.7649,2.761,2.7629,2.7627,2.7575,2.758,2.7559,2.7535,2.7528,2.7501,2.7495,2.7459,2.7451,2.7457,2.7428,2.7454,2.7424,2.7413,2.7413,2.7419,2.7506,2.7529,2.7581,2.7475,2.7476,2.7476,0,2.7715,2.77,2.7718,2.7681,2.7678,2.7684,2.7665,2.7661,2.7635,2.7616,2.7603,2.7567,2.757,2.7532,2.7533,2.7514,2.7507,2.7492,2.7492,2.7488,2.7447,2.7502,2.7597,2.7604,2.7487,2.7486,2.7485,0,2.7796,2.778,2.7788,2.7779,2.7736,2.774,2.7723,2.7695,2.7687,2.767,2.7664,2.7649,2.7639,2.7627,2.7588,2.7564,2.7592,2.7552,2.7575,2.7576,2.7582,2.7582,2.7675,2.7582,2.7582,2.7581,2.7581,0,2.7869,2.7881,2.7824,2.7829,2.784,2.7795,2.7808,2.7785,2.776,2.7759,2.7714,2.7713,2.7662,2.7655,2.7625,2.7629,2.7626,2.7609,2.76,2.7612,2.7613,2.7605,2.76,2.7583,2.7583,2.7583,2.7582,0,2.796,2.7923,2.7927,2.7886,2.7876,2.7886,2.785,2.7852,2.7824,2.7822,2.7819,2.7775,2.7764,2.7724,2.7704,2.7683,2.7696,2.7681,2.7705,2.7699,2.7723,2.772,2.7812,2.7821,2.7725,2.7726,2.7727,0,2.8008,2.8016,2.7976,2.7971,2.7955,2.7949,2.7941,2.7896,2.7889,2.7859,2.7864,2.785,2.7836,2.7821,2.7786,2.7769,2.7752,2.7785,2.7749,2.776,2.7749,2.7748,2.7748,2.7793,2.7794,2.7795,2.7796,0,2.8097,2.8077,2.8067,2.8049,2.804,2.8024,2.8006,2.8005,2.7955,2.7948,2.7937,2.7926,2.7904,2.789,2.7867,2.7848,2.7813,2.7808,2.7811,2.7822,2.7835,2.7826,2.7724,2.7805,2.7804,2.7804,2.7803,2.7803,2.8166,2.817,2.8141,2.813,2.8112,2.8095,2.8094,2.8065,2.8055,2.8034,2.8008,2.7999,2.7971,2.7937,2.792,2.7911,2.7892,2.7898,2.79,2.7901,2.7906,2.7838,2.7907,2.7907,2.7906,2.7906,2.7906,0,2.825,2.8229,2.8219,2.8194,2.8185,2.8154,2.8131,2.8125,2.8118,2.8095,2.8082,2.8067,2.8052,2.8016,2.7997,2.7997,2.798,2.7993,2.7992,2.7987,2.7925,2.7923,2.8007,2.8007,2.8007,2.8007,2.8007,2.8007,2.8292,2.8297,2.8274,2.8267,2.8245,2.8236,2.8226,2.8209,2.819,2.8176,2.8163,2.814,2.8111,2.8089,2.8073,2.8063,2.8057,2.8075,2.8059,2.8002,2.7992,2.7983,2.798,2.8075,2.8075,2.8121,2.8122,2.8122]}]]